Weather observations for the past three days for
Greenville, Mid Delta Regional Airport
Imperial (Metric)
Date Time (cdt) Wind (mph) Vis. (mi.) Weather Sky Cond. Temperature (ºF) Relative Humidity Wind Chill (°F) Heat Index (°F) Pressure Precipitation (in)
Air Dwpt 6 hour altimeter (in) sea level (mb) 1 hr 3 hr 6 hr
Max. Min.
22 23:53 S 7 10.00 Fair CLR 80.1 70 71% 83 29.98 1015.7
22 22:53 S 7 10.00 Fair CLR 81 70 69% 84 29.98 1015.7
22 21:53 SE 6 10.00 Fair CLR 81 71.1 72% 85 29.97 1015.3
22 20:53 Calm 10.00 Fair CLR 82 72 72% 87 29.96 1014.8
22 19:53 SE 6 10.00 Fair CLR 87.1 73 63% 95 29.96 1014.8
22 18:53 SE 7 10.00 Fair CLR 93 73 98.1 91.9 52% 102 29.96 1014.8
22 17:53 S 7 10.00 Fair CLR 95 71.1 46% 102 29.96 1014.8
22 16:53 SE 3 10.00 Fair CLR 96.1 72 46% 105 29.97 1015.2
22 15:53 Vrbl 3 10.00 Fair CLR 97 70 42% 104 29.99 1015.9
22 14:53 S 6 10.00 Fair CLR 97 70 42% 104 30.01 1016.5
22 13:53 Vrbl 7 10.00 Partly Cloudy SCT055 97 70 42% 104 30.02 1017.0
22 12:53 SE 6 10.00 Partly Cloudy FEW060 SCT080 96.1 69.1 97 75.9 41% 102 30.05 1017.9
22 11:53 SE 3 10.00 Mostly Cloudy SCT050 BKN060 95 71.1 46% 102 30.06 1018.3
22 10:53 S 6 10.00 Fair CLR 93.9 71.1 48% 101 30.07 1018.7
22 09:53 SW 6 10.00 Fair CLR 91 71.1 52% 98 30.08 1018.9
22 08:53 SE 5 10.00 Fair CLR 87.1 73 63% 95 30.09 1019.3
22 07:53 Calm 10.00 Fair CLR 82.9 73.9 74% 89 30.09 1019.2
22 06:53 Calm 8.00 Fair CLR 75.9 72 77 71.1 88% 76 30.08 1019.1
22 05:50 Calm 0.50 Fog CLR 72 68 87% 30.08 1019.0
22 04:53 Calm 8.00 Fair CLR 72 68 87% 30.08 1019.0
22 03:53 Calm 10.00 Fair CLR 75 71.1 88% 75 30.08 1018.9
22 02:53 Calm 10.00 Fair CLR 75 71.1 88% 75 30.08 1019.0
22 01:53 Calm 10.00 Fair CLR 75 72 90% 74 30.08 1019.1
22 00:53 Calm 10.00 Fair CLR 75.9 71.1 93.9 75.9 85% 76 30.09 1019.2
21 23:53 Calm 10.00 Fair CLR 77 71.1 82% 79 30.09 1019.2
21 22:53 Calm 10.00 Fair CLR 79 72 79% 82 30.09 1019.4
21 21:53 Calm 10.00 Fair CLR 79 73 82% 82 30.08 1019.0
21 20:53 Calm 10.00 Fair CLR 82 73 74% 87 30.08 1018.8
21 19:53 Calm 10.00 Fair CLR 88 75.9 68% 99 30.07 1018.8
21 18:53 E 3 10.00 Fair CLR 93.9 72 96.1 90 49% 102 30.08 1018.9
21 17:53 E 6 10.00 Fair CLR 93.9 71.1 48% 101 30.08 1019.0
21 16:53 SE 6 10.00 Fair CLR 93 73 52% 102 30.09 1019.4
21 15:53 Vrbl 5 10.00 Partly Cloudy FEW045 SCT055 SCT070 96.1 73 48% 106 30.11 1020.0
21 14:53 Vrbl 5 10.00 Mostly Cloudy FEW040 SCT055 BKN090 93.9 73.9 52% 104 30.13 1020.7
21 13:53 Vrbl 3 10.00 Partly Cloudy SCT038 SCT060 93.9 73.9 52% 104 30.15 1021.4
21 12:53 Calm 10.00 Mostly Cloudy BKN090 91 73 91.9 73.9 56% 100 30.17 1022.0
21 11:53 SE 3 10.00 Partly Cloudy FEW037 SCT085 90 73 58% 98 30.19 1022.7
21 10:53 Calm 10.00 Partly Cloudy SCT050 89.1 72 57% 96 30.2 1023.1
21 09:53 SE 3 10.00 Mostly Cloudy BKN055 87.1 73 63% 95 30.21 1023.3
21 08:53 E 5 10.00 Mostly Cloudy BKN070 BKN085 84 72 67% 90 30.21 1023.4
21 07:53 N 3 10.00 Mostly Cloudy FEW070 BKN090 78.1 71.1 79% 80 30.2 1023.1
21 06:53 Calm 10.00 Fair CLR 73.9 69.1 79 70 85% 30.2 1022.9
21 05:53 N 3 10.00 Fair CLR 70 66.9 90% 30.18 1022.4
21 04:53 Calm 10.00 Fair CLR 71.1 66.9 87% 30.18 1022.2
21 03:53 NE 3 10.00 Fair CLR 73 69.1 87% 30.17 1022.0
21 02:53 Calm 10.00 Fair CLR 73.9 69.1 85% 30.16 1021.7
21 01:53 E 3 10.00 Fair CLR 75.9 69.1 79% 77 30.17 1021.9
21 00:53 E 3 10.00 Partly Cloudy SCT065 SCT080 79 70 90 78.1 74% 82 30.17 1022.2
20 23:53 SE 3 10.00 Mostly Cloudy BKN070 80.1 70 71% 83 30.18 1022.3
20 22:53 SE 5 10.00 Mostly Cloudy BKN075 80.1 71.1 74% 84 30.17 1022.2
20 21:53 E 3 10.00 Overcast OVC075 82.9 71.1 67% 88 30.16 1021.8
20 20:53 NE 6 10.00 Mostly Cloudy BKN080 84.9 70 61% 89 30.15 1021.4
20 19:53 E 6 10.00 Mostly Cloudy BKN080 87.1 69.1 55% 91 30.15 1021.3
20 18:53 E 7 10.00 Fair CLR 90 69.1 95 90 50% 95 30.15 1021.2
20 17:53 NE 9 10.00 A Few Clouds FEW050 93 69.1 46% 98 30.15 1021.4
20 16:53 E 9 10.00 A Few Clouds FEW080 93.9 70 46% 100 30.17 1022.0
20 15:53 E 8 10.00 A Few Clouds FEW046 91.9 69.1 47% 97 30.18 1022.4
20 14:53 NE 6 10.00 Partly Cloudy SCT040 93.9 73 51% 103 30.19 1022.8
20 13:53 E 10 10.00 Fair CLR 93 72 50% 101 30.21 1023.2
20 12:53 E 7 10.00 Fair CLR 91 71.1 91 77 52% 98 30.22 1023.7
20 11:53 E 7 10.00 Fair CLR 88 72 59% 95 30.23 1024.1
20 10:53 SE 6 10.00 A Few Clouds FEW075 86 72 63% 92 30.23 1024.2
20 09:53 E 8 10.00 Fair CLR 84.9 71.1 63% 90 30.22 1023.8
20 08:53 E 8 10.00 A Few Clouds FEW065 82 70 67% 86 30.22 1023.6
20 07:53 E 8 10.00 Mostly Cloudy BKN090 79 70 74% 82 30.2 1023.0
20 06:53 E 6 10.00 Overcast FEW060 OVC080 77 70 77 75 79% 79 30.18 1022.4
20 05:53 NE 7 10.00 Overcast OVC080 75.9 70 82% 77 30.17 1022.0
20 04:53 NE 7 10.00 Overcast OVC075 75.9 71.1 85% 76 30.16 1021.6
20 03:53 NE 3 10.00 Mostly Cloudy BKN075 75 70 84% 75 30.15 1021.3
20 02:53 NE 6 10.00 Fair CLR 75 70 84% 75 30.14 1021.1
20 01:53 NE 5 10.00 Fair CLR 77 71.1 82% 79 30.15 1021.4
20 00:53 NE 6 10.00 Fair CLR 77 72 84 77 85% 78 30.15 1021.3
Date Time (cdt) Wind (mph) Vis. (mi.) Weather Sky Cond. Air Dwpt Max. Min. Relative Humidity Wind Chill (°F) Heat Index (°F) altimeter (in) sea level (mb) 1 hr 3 hr 6 hr
6 hour
Temperature (ºF) Pressure Precipitation (in)